Location: Heppenheim
(49.6410°N, 8.6370°E)
Time: 16:47:22
(UTC+02:00)

ISS - Pass Details

Date: 15 May 2026
Orbit: 414 x 424 km, 51.6° (Epoch: 10 May)

Event Time Altitude Azimuth Distance (km) Brightness Sun altitude
Rises 23:21:04 0° 284° (WNW) 2,354 0.7 -16.3°
Reaches altitude 10° 23:23:10 10° 287° (WNW) 1,491 -0.3 -16.5°
Maximum altitude 23:26:30 70° 11° (N) 446 -3.6 -16.7°
Enters shadow 23:28:12 26° 90° (E) 852 -2.5 -16.9°
